Location: Unnamed
(23.5608°S, 46.6833°W)
Time: 05:24:13
(UTC-03:00)

Tiros 4 - Pass Details

Date: 10 December 2023
Orbit: 683 x 792 km, 48.3° (Epoch: 24 February)

Event Time Altitude Azimuth Distance (km) Brightness Sun altitude
Exits shadow 23:23:31 12° 160° (SSE) 2,225 9.8 -42.7°
Drops below altitude 10° 23:23:59 10° 157° (SSE) 2,373 10.0 -42.7°
Sets 23:26:46 0° 146° (SE) 3,306 10.8 -42.8°
